Hauptseite
METAR-TAF:

METAR-TAF

Flughäfen :

Flughafen Morlaix

Morlaix, Frankreich

Breite: 48-36N, Länge: 3-49W, Höhe: 84 m

Beobachtung

Neuester Wetterbericht von vor 6 Stunden und 1 Minuten, um 18:00 UTC
Wind 7 kt aus West
Temperatur 6°C
Luftfeuchtigkeit 87%
Luftdruck 1003 hPa
Sichtweite 10 km oder mehr

METAR: LFRU 221800Z AUTO 27007KT 9999 FEW027/// OVC100/// ///TCU 06/04 Q1003

Zeit: 01:01 (00:01 UTC)


TAF: fehlend

Wetterbeobachtungen und Prognosen von mehr als 4000 Flughäfen (METAR und TAF Bericht).

Die verfügbaren Stationen werden durch gelbe und rote Markierungen auf der Karte dargestellt.

Führen Sie die Maus auf sie, um den Namen der Station zu sehen.

Darauf klicken, um die Beobachtung von Wetterbeobachtungen und Prognosen zu sehen.

Um die Karte zu ändern : klicken Sie auf den grünen Tasten mit einem schwarzen Kreuz Zum Vergrößern, auf den grünen Button mit einem Gedankenstrich zu verkleinern, oder auf die grünen Pfeile für benachbarte Karten.


METAR-TAF: